Regional Weather Roundup
Issued by NWS Bismarck, ND

Home | Current Version | Previous Version | Text Only | Print | Product List | Glossary On
Versions: 1 2 3 4 5 6 7 8 9 10 11 12 13 14 15 16 17 18 19 20 21 22 23 24 25 26 27 28 29 30 31 32 33 34 35 36 37 38 39 40 41 42 43 44 45 46 47 48 49 50
000
ASUS43 KBIS 160720
RWRBIS

NWR BROADCAST TEXT
NATIONAL WEATHER SERVICE BISMARCK ND
200 AM CDT TUE SEP 16 2014

NOTE: "FAIR" INDICATES FEW OR NO CLOUDS BELOW 12,000 FEET WITH NO
SIGNIFICANT WEATHER AND/OR OBSTRUCTIONS TO VISIBILITY.


CITY           SKY/WX    TMP DP  RH WIND       PRES   REMARKS
WILLISTON      CLEAR     39  34  82 N3        30.05S
MINOT          CLEAR     51  40  65 SW9       30.05S
MINOT AFB      CLEAR     48  40  75 SW6       30.04F
BISMARCK       CLEAR     45  38  76 E3        30.11S
DICKINSON      CLEAR     43  38  82 S10       30.05F
GARRISON         N/A     45  40  82 CALM      30.07F
HETTINGER ARPT CLEAR     44  37  76 E5        30.09F
JAMESTOWN      CLEAR     43  37  79 S8        30.11F
BEACH            N/A     39  39 100 SE3       30.07S
CARRINGTON     FAIR      46  39  76 SW10      30.10S
CROSBY         FAIR      43  37  81 SW9       30.04S
HARVEY         FAIR      39  37  93 SW7       30.08S
HAZEN          FAIR      39  36  87 CALM      30.08F
LINTON         FAIR      43  37  81 SE8       30.12S
MANDAN         FAIR      48  37  66 SW9       30.11S
OAKES            N/A     39  39 100 S8        30.15S
RUGBY          FAIR      45  39  81 SW8       30.05S
STANLEY        FAIR      37  36  93 CALM      30.06S
TIOGA          FAIR      34  32  93 CALM      30.08F
WATFORD CITY   FAIR      37  32  81 CALM      30.04S
$$

CITY           SKY/WX    TMP DP  RH WIND       PRES   REMARKS
GRAND FORKS    CLEAR     43  39  86 SW6       30.06S
GRAND FORKS AF CLEAR     46  40  80 SW6       30.06F
DEVILS LAKE    CLEAR     54  37  54 SW12      30.06S
FARGO          CLEAR     50  38  63 SW13      30.12S
CANDO          FAIR      41  37  87 SW8       30.06S
CAVALIER       FAIR      50  37  62 SW7       30.01F
GRAFTON        FAIR      45  39  81 SW9       30.03F
GWINNER        SUNNY     43  37  81 SW8       30.16S
LANGDON        FAIR      41  37  87 SW9       30.04S
ROLLA          FAIR      48  37  66 SW13      30.05S
WALHALLA       FAIR      57  36  44 SW9       30.01S
$$

CITY           SKY/WX    TMP DP  RH WIND       PRES   REMARKS
ABERDEEN       CLEAR     34  33  96 S6        30.17F
MOBRIDGE       CLEAR     50  41  71 S13       30.11F
BUFFALO          N/A     50  41  71 CALM      30.00F
RAPID CITY     CLEAR     48  42  80 SE6       30.07F
GLASGOW        CLEAR     46  37  71 E10       30.03S
SIDNEY         CLEAR     37  34  87 CALM      30.06S
WOLF POINT     CLEAR     40  34  79 N3        30.05S
GLENDIVE       CLEAR     45  36  70 N7        30.06S
MILES CITY     CLEAR     49  40  71 N7        30.03S
BAKER          CLEAR     44  42  93 E5        30.06F
$$

CITY           SKY/WX    TMP DP  RH WIND       PRES   REMARKS
BILLINGS       CLEAR     54  45  71 SW7       30.06S
GREAT FALLS    CLEAR     46  37  71 SW6       30.02S
REGINA         CLEAR     45  37  76 S3        30.02R
ESTEVAN        CLEAR     41  36  81 W5        30.04R
$$




USA.gov is the U.S. government's official web portal to all federal, state and local government web resources and services.